Theta_e
330 330 331 331 331 330 331 331 331 331 331 330 330 329 330 330 330 330 330 329 329 330 331 331 331 331 331 331 330 330 330 330 332 332 330 329 329 329 329 328 328 328 329 329 329 329 329 329 328 328 328 329 328 328 328 329 329 330 331 331 330 330 329
329 329 330 330 330 330 330 330 330 329 329 329 329 328 329 330 329 329 328 328 328 328 329 330 331 331 330 330 330 330 330 330 330 330 330 329 328 329 329 329 329 329 329 329 329 329 329 329 329 328 328 328 328 328 328 329 329 329 330 330 330 330 330
328 329 329 329 329 329 329 329 329 329 328 328 327 327 328 329 329 328 327 327 327 327 328 329 329 330 330 330 329 330 330 329 329 329 329 328 328 328 328 328 329 329 329 329 329 329 329 328 328 328 328 328 328 328 328 329 329 329 328 328 329 330 330
328 328 328 328 328 328 328 328 328 328 327 326 326 326 326 327 327 326 326 326 326 326 327 327 328 329 329 329 329 328 329 329 329 329 329 329 329 329 329 328 328 329 329 329 329 329 328 328 328 328 328 328 328 328 327 327 328 329 329 328 328 329 330
327 327 326 326 327 327 327 327 327 327 326 325 325 324 323 324 324 324 324 324 325 325 324 326 327 328 328 328 328 327 328 328 328 329 329 329 329 329 329 329 329 329 329 329 329 329 328 328 328 329 329 328 328 328 327 327 327 327 328 328 328 328 328
327 327 327 326 327 327 327 326 326 325 324 323 323 322 322 322 322 322 322 322 322 322 322 323 325 326 327 327 327 326 327 328 328 328 328 328 328 328 328 328 329 329 329 329 328 328 328 328 328 328 328 328 329 329 329 328 327 326 327 327 327 328 328
326 326 326 326 325 325 324 324 323 323 322 321 321 321 320 321 321 321 321 321 321 321 321 321 322 323 325 326 326 325 326 327 328 328 327 327 327 327 328 328 328 328 328 328 327 327 328 328 327 327 328 328 328 329 329 328 328 327 327 327 327 328 328
324 324 324 323 323 322 321 321 320 320 319 319 319 319 319 319 320 320 320 320 319 319 320 320 320 321 322 324 324 324 325 325 326 326 326 326 326 326 327 327 328 328 327 328 328 328 328 328 328 328 328 327 327 328 329 328 328 328 327 327 327 328 328
321 320 320 320 319 319 319 318 318 318 318 318 318 318 318 318 318 318 318 319 319 319 319 319 319 319 321 323 323 323 323 323 324 325 324 325 325 325 325 326 326 326 326 327 327 328 328 328 328 328 328 328 327 328 329 329 328 328 327 326 327 327 327
318 317 317 317 317 317 317 316 316 316 316 316 316 317 317 317 317 318 318 318 318 318 318 318 318 318 320 322 322 322 322 322 323 325 325 325 325 324 324 324 324 324 325 326 326 327 327 328 328 328 328 328 328 328 328 328 329 329 328 327 327 327 326
316 316 316 316 316 315 315 315 316 316 316 316 316 316 317 317 317 317 318 318 318 318 318 317 317 317 317 318 319 320 321 321 322 323 324 325 326 325 324 324 324 324 324 324 325 326 326 327 327 328 328 328 327 327 327 328 328 329 329 328 328 326 325
315 315 315 315 315 315 315 315 315 316 316 316 316 316 316 316 316 317 317 317 317 317 317 317 317 316 317 317 317 318 319 319 320 320 322 323 325 325 324 323 323 323 323 323 323 324 325 326 326 327 327 328 328 327 327 327 327 328 328 328 328 326 324
313 314 314 314 314 315 315 315 315 315 315 315 315 315 315 315 315 315 316 316 316 316 316 316 316 316 316 316 316 317 317 317 318 318 319 320 321 322 322 322 322 322 323 323 323 323 323 323 324 325 326 327 328 328 327 327 328 327 327 327 328 328 326
312 312 313 313 315 315 315 315 315 315 314 314 314 314 314 314 314 314 314 315 315 315 315 315 315 315 315 315 315 316 316 316 316 316 317 317 317 318 318 319 320 321 321 322 322 322 322 323 323 323 324 325 326 327 327 327 328 327 327 327 327 328 328
311 312 312 313 314 314 314 314 314 314 314 313 313 313 313 313 313 313 313 313 313 314 314 314 314 314 314 314 314 314 314 314 315 315 315 315 315 315 316 316 317 318 318 319 319 320 322 324 324 324 324 324 324 325 326 327 328 328 327 327 327 327 328
310 311 312 312 312 312 312 312 312 312 312 312 312 312 312 312 312 312 312 312 312 312 312 312 312 312 312 313 313 313 313 313 313 313 314 314 314 314 315 315 315 316 316 317 317 318 320 322 324 325 325 325 325 325 325 326 327 327 327 327 327 328 328
310 310 310 310 310 310 310 310 310 310 311 311 311 311 311 311 311 311 311 311 311 311 311 311 311 311 311 312 312 312 312 312 312 312 312 313 313 314 314 314 315 315 316 316 316 317 318 319 321 323 324 325 325 325 324 325 326 327 327 327 327 328 328
308 308 308 308 308 308 308 308 308 309 309 309 309 309 310 310 310 310 310 310 310 309 309 309 309 310 310 310 310 310 311 311 311 311 312 312 312 313 313 314 314 315 316 316 316 317 317 317 318 319 321 323 324 325 325 325 325 325 327 327 327 328 328
306 306 306 306 306 306 307 307 307 307 307 307 307 307 307 307 307 307 307 307 307 307 307 307 307 307 308 308 308 308 308 309 309 310 310 311 311 312 312 313 314 314 314 315 316 316 316 317 317 317 319 320 321 323 324 325 325 325 326 327 327 328 328
305 304 304 304 305 305 305 306 306 306 306 305 305 305 305 305 305 305 305 305 305 304 304 305 305 305 305 306 306 306 306 307 307 308 309 310 311 311 312 312 312 313 313 313 313 314 315 315 316 316 317 318 320 321 323 324 325 326 326 326 327 327 327
303 303 303 303 303 304 304 304 304 304 304 304 304 304 303 303 303 303 303 303 303 302 302 303 303 303 304 304 304 304 305 305 306 307 308 309 310 311 311 311 311 312 312 312 312 312 313 313 314 315 316 317 318 319 321 322 324 325 326 326 326 327 327
302 302 302 302 303 303 303 303 302 302 302 302 302 302 302 302 301 301 301 301 301 301 301 301 300 300 301 302 302 303 303 304 305 305 306 308 309 310 310 310 310 311 311 311 312 312 313 313 312 313 315 316 317 318 319 320 322 324 325 326 326 326 327
302 302 302 302 302 301 301 301 301 301 301 301 300 300 300 300 300 300 300 300 300 300 300 299 299 299 299 300 300 301 301 302 303 304 305 306 307 308 309 309 309 310 310 310 311 312 314 314 314 313 313 314 315 316 318 319 320 323 324 325 326 327 327
301 301 301 300 300 300 299 299 299 299 298 298 298 299 299 299 299 299 299 299 299 299 299 299 298 299 299 299 299 299 300 301 302 303 304 305 306 307 307 308 308 309 309 310 311 312 313 315 315 315 315 314 315 315 317 318 319 321 323 324 325 326 326
300 299 299 298 297 297 297 297 296 296 296 296 296 296 296 296 297 297 297 298 298 298 298 298 298 298 298 298 298 299 299 299 300 301 303 303 304 305 306 306 307 308 309 309 309 310 312 314 315 315 316 316 316 316 317 318 318 319 321 323 324 325 326
298 298 297 296 296 296 296 296 295 295 295 295 295 295 295 295 295 295 295 296 297 297 297 297 297 297 298 298 298 298 299 299 299 300 301 302 303 303 304 304 305 306 307 308 309 309 310 312 313 314 315 316 316 317 318 318 318 318 318 320 323 324 325
297 297 296 296 296 296 296 295 295 295 295 295 294 294 294 294 294 294 295 295 296 296 296 297 297 297 297 297 298 298 298 299 299 299 300 301 301 302 302 302 303 304 305 307 307 308 308 310 312 313 315 315 316 317 318 319 319 319 318 319 321 323 324
297 297 296 296 296 296 295 295 294 294 294 294 293 293 293 293 293 294 294 295 296 296 296 296 296 297 297 297 297 298 298 298 299 299 299 300 301 301 301 301 302 302 304 305 306 306 306 308 310 313 314 314 315 317 319 320 320 319 319 318 319 321 323
297 297 297 296 296 295 295 294 294 294 293 293 293 293 293 293 293 294 294 295 296 296 296 296 296 296 296 297 297 297 297 298 298 298 299 299 300 300 300 300 300 301 302 304 305 305 305 307 309 312 313 314 315 317 319 320 320 320 319 319 319 321 323
296 296 296 296 296 295 294 294 294 293 293 293 293 293 293 293 293 294 294 295 295 296 296 296 296 296 296 296 296 297 297 297 298 298 298 299 299 299 299 299 300 301 301 303 303 304 305 306 308 310 312 314 316 317 319 319 319 320 320 318 318 319 321
296 296 296 295 295 295 294 294 293 293 293 293 293 293 293 293 293 294 294 295 295 295 296 296 296 296 296 296 296 296 296 297 297 297 298 298 298 298 298 299 300 300 301 302 303 304 305 306 307 309 311 313 315 316 317 317 318 319 319 318 318 319 320
295 295 295 295 295 295 294 294 293 293 293 293 293 293 293 293 293 294 294 295 295 296 296 296 295 295 295 295 295 295 296 296 296 297 297 297 297 297 298 299 300 300 301 301 302 303 304 305 306 308 309 311 314 315 316 316 317 318 318 318 319 319 320
295 295 295 295 295 294 294 294 293 293 293 293 293 293 293 293 293 294 294 294 295 295 296 295 295 295 295 295 295 295 295 295 296 296 296 296 297 297 298 299 300 300 300 301 301 302 303 304 305 306 308 309 311 313 314 315 316 317 318 319 319 319 320
295 295 295 295 295 294 294 294 294 293 293 293 293 293 293 293 293 293 294 294 294 295 295 295 295 294 294 295 295 295 295 295 295 296 296 296 296 297 298 298 299 300 300 300 301 301 303 304 305 306 307 307 308 310 312 314 315 316 317 318 319 320 320
295 295 295 295 295 295 294 294 294 294 293 293 293 293 293 293 293 293 293 294 294 294 294 295 294 294 294 294 294 295 295 295 295 295 296 296 296 296 297 298 298 299 300 300 300 300 301 303 304 305 305 306 308 310 311 313 314 314 315 316 317 318 319
295 295 295 295 295 295 295 294 294 294 294 293 293 293 293 293 292 292 293 293 293 294 294 294 294 294 294 294 294 294 294 295 295 295 295 296 296 296 296 297 297 298 299 300 300 300 301 302 303 303 304 305 307 309 311 312 312 312 313 315 316 316 317
295 295 295 295 295 295 295 295 295 294 294 293 293 293 293 293 293 292 292 292 292 293 293 294 294 294 294 294 294 294 294 295 295 295 295 295 295 295 296 296 297 297 298 299 300 300 300 301 301 301 302 304 306 308 310 311 311 311 312 314 314 315 315
Wind_Speed
8 8 9 10 11 11 11 12 13 14 15 17 18 17 17 16 17 18 19 19 18 17 16 17 17 17 16 16 15 14 13 13 14 17 19 18 18 19 20 21 23 23 23 24 24 23 23 25 25 24 24 24 24 23 22 20 21 24 26 27 28 28 27
9 9 10 11 12 12 13 13 14 15 16 17 17 17 16 15 17 18 21 22 21 19 17 17 17 17 16 16 16 15 15 15 14 16 18 19 19 19 19 20 23 24 25 25 24 23 24 26 27 27 26 25 26 26 25 24 23 23 25 27 29 31 29
11 11 12 13 14 15 16 16 16 17 18 18 18 17 15 15 17 19 20 21 20 19 18 18 18 17 17 16 16 17 17 17 16 16 17 19 20 20 19 20 22 24 25 25 25 25 25 25 26 27 26 26 27 27 24 24 24 24 24 25 28 31 29
13 15 15 15 16 17 18 19 19 19 20 20 21 21 20 18 19 20 20 19 17 17 17 18 19 18 18 18 18 18 18 17 16 16 17 18 19 21 21 22 23 24 25 25 25 25 25 25 26 27 27 26 27 26 24 23 23 23 24 25 26 28 27
16 18 19 18 19 20 21 23 23 22 22 22 22 23 21 19 18 18 18 18 18 18 17 17 18 18 19 19 17 17 17 17 16 16 17 18 19 20 22 23 23 24 25 25 25 24 24 25 26 29 29 27 28 27 24 23 23 23 24 24 25 25 24
17 18 19 20 20 21 22 23 23 23 22 21 21 21 19 17 17 18 19 20 20 21 20 17 17 18 19 19 17 16 17 16 16 16 17 18 19 19 20 21 21 22 23 23 22 21 22 24 26 30 30 28 28 28 25 24 24 25 25 24 24 24 24
15 15 16 18 19 20 21 21 21 21 21 21 20 20 19 17 18 19 21 22 22 23 23 20 19 18 19 19 18 18 18 17 16 15 16 18 18 18 18 19 19 20 21 22 20 19 20 22 25 29 30 29 29 29 28 26 26 27 26 24 23 23 25
12 13 14 15 16 17 18 19 19 19 20 20 20 20 19 18 18 19 21 23 23 23 22 21 20 19 19 20 20 20 20 20 18 17 17 18 19 18 17 17 18 19 20 21 19 19 20 21 23 26 29 30 29 28 29 29 29 29 26 23 23 22 23
9 10 11 13 14 15 16 17 18 19 19 19 19 19 19 20 19 20 22 23 23 22 21 21 21 20 18 19 21 22 22 21 20 19 19 19 19 20 19 18 19 19 20 20 20 19 20 20 22 24 26 29 29 29 29 29 31 31 26 24 26 24 23
7 8 10 11 12 14 15 17 18 19 19 19 19 19 19 20 20 20 21 22 22 22 22 22 22 21 19 18 21 23 23 22 21 20 20 20 21 21 21 21 22 22 22 21 21 21 21 21 21 21 24 27 29 30 30 29 31 32 28 27 28 26 24
8 9 11 12 13 15 16 17 17 17 17 16 16 16 16 17 18 19 20 21 22 22 23 23 22 22 22 21 22 23 23 23 22 21 20 21 21 21 22 22 23 24 24 23 23 22 22 21 22 21 22 25 27 29 31 31 33 33 31 30 29 26 25
11 12 13 14 15 15 14 14 13 13 13 14 15 15 15 15 15 16 17 19 20 20 21 21 21 21 21 21 21 22 23 24 24 24 22 22 22 23 24 25 25 25 25 25 25 25 24 22 22 22 22 23 24 26 29 32 35 34 32 31 30 27 26
12 13 14 15 15 13 11 10 11 12 13 14 15 15 15 15 15 16 16 17 18 18 18 18 19 19 19 20 20 20 20 20 21 22 23 24 25 26 28 27 26 25 25 26 27 27 28 26 25 24 24 23 23 24 27 30 35 36 33 31 30 28 28
12 13 13 13 13 11 11 11 12 13 14 14 15 15 15 15 16 16 16 17 17 18 18 18 18 18 18 19 19 19 19 19 19 20 20 21 21 23 25 26 26 27 27 29 29 28 27 28 28 28 28 27 26 25 25 27 32 35 35 32 31 30 30
11 11 10 10 10 10 11 12 12 13 13 14 15 15 15 15 16 16 16 16 16 17 18 18 19 19 19 19 19 20 20 20 20 20 20 20 20 20 21 22 23 24 26 28 29 28 26 26 27 28 29 30 30 29 27 26 28 31 34 33 32 30 30
9 9 9 9 9 9 10 11 11 12 12 13 14 14 15 15 16 16 16 16 17 18 18 19 20 21 21 22 22 22 22 22 22 22 22 22 22 22 22 22 22 22 23 25 26 26 27 27 27 28 29 29 30 31 30 28 28 29 31 32 32 31 30
9 9 9 10 10 10 10 11 11 12 12 13 14 14 15 15 16 16 17 18 19 19 20 21 21 22 22 23 24 24 24 24 24 25 25 24 24 24 25 25 25 24 23 24 25 26 27 28 29 29 30 29 29 31 32 31 30 30 30 32 32 32 31
10 10 11 11 11 11 12 12 12 12 13 13 14 14 14 15 16 17 18 19 20 21 22 22 23 23 23 23 24 25 25 25 26 26 26 26 26 25 25 26 26 26 26 25 25 26 26 28 30 31 32 32 30 31 32 32 32 31 31 33 33 32 32
13 13 12 12 12 12 12 12 12 13 14 14 14 15 15 16 17 17 18 19 20 21 22 23 24 24 24 24 24 25 25 25 25 25 25 26 26 26 26 25 26 26 26 25 25 25 26 26 28 30 33 35 34 32 31 31 32 33 33 34 34 34 33
13 14 13 12 12 12 12 13 13 14 15 15 15 16 17 18 18 18 19 20 20 21 22 23 24 25 25 26 26 27 27 26 26 25 24 24 25 26 26 25 25 25 25 25 25 25 26 27 27 29 31 34 36 37 35 32 31 33 34 35 35 35 35
12 13 13 12 12 13 13 13 14 15 15 16 17 18 19 19 19 19 20 20 21 22 23 24 25 27 28 29 29 29 28 28 28 27 25 24 23 24 25 25 24 24 24 24 24 24 25 26 28 30 31 32 34 38 39 38 34 32 33 35 35 35 36
12 12 12 13 14 14 14 15 15 16 17 18 19 19 19 19 19 20 20 21 22 23 23 24 26 28 29 30 30 30 30 29 29 28 27 26 24 23 23 24 25 25 25 24 24 23 22 22 24 27 30 32 33 35 38 41 40 35 32 34 36 35 35
12 12 13 15 15 16 16 16 17 18 19 19 19 19 19 19 20 21 22 22 23 24 25 25 26 27 28 29 30 30 31 31 29 28 28 27 27 25 23 23 24 25 26 26 25 25 23 21 20 22 25 28 32 35 38 41 43 41 36 34 36 36 36
13 14 16 16 17 17 17 17 18 18 19 19 19 19 19 20 21 21 22 22 23 24 25 26 27 27 28 28 29 30 30 31 30 28 27 27 27 27 26 24 24 24 25 26 26 26 26 24 23 23 24 25 27 32 37 41 44 46 43 37 35 37 38
16 17 17 18 18 18 17 18 18 19 19 20 20 19 20 20 20 21 21 22 23 24 25 26 27 28 29 29 30 30 29 29 29 28 27 27 27 27 27 27 26 25 24 25 27 28 28 27 27 27 28 28 27 28 33 38 43 46 48 44 39 37 37
18 18 18 19 18 18 18 19 20 20 20 20 20 20 21 21 20 20 21 22 22 23 24 26 27 29 30 31 31 31 30 29 28 28 27 27 27 27 27 28 28 27 25 25 27 29 30 30 30 30 30 30 30 29 30 34 39 44 48 50 47 42 37
19 19 19 18 18 18 19 20 21 21 21 21 21 21 22 21 21 21 21 21 22 23 24 26 27 29 30 31 32 32 31 30 29 28 27 27 27 27 28 29 30 30 28 28 28 29 31 32 32 31 30 29 31 32 31 32 35 40 45 51 53 50 44
18 18 17 16 17 18 19 20 21 22 23 23 24 24 24 23 23 22 21 21 21 22 24 25 27 29 30 31 31 32 32 32 31 30 29 28 27 27 29 30 32 32 31 30 30 31 33 34 33 31 31 31 33 34 32 32 33 36 41 48 53 53 49
16 16 15 15 16 18 20 21 23 24 24 25 26 26 26 25 24 22 21 20 20 21 23 25 27 29 30 31 32 32 33 33 33 32 31 30 29 28 30 32 33 33 33 32 32 32 34 35 33 32 33 34 35 34 30 28 30 33 36 42 48 50 49
15 14 14 15 17 20 21 23 24 25 26 27 28 28 28 26 24 23 22 21 21 22 23 25 28 30 32 33 34 35 36 36 35 34 33 32 31 31 32 33 33 34 34 34 34 34 35 36 34 33 34 35 34 32 28 24 23 25 30 34 38 41 43
14 14 15 17 20 21 23 24 25 26 27 28 29 29 29 27 25 24 23 23 22 22 23 25 28 31 33 35 36 37 38 38 38 37 36 35 34 33 32 32 32 32 33 33 33 34 34 35 35 34 33 33 33 31 27 23 17 14 19 26 30 32 35
15 16 17 19 20 21 23 24 25 27 27 28 29 30 29 28 27 25 24 24 23 22 23 26 29 31 33 35 37 38 39 39 39 39 39 38 37 35 33 31 31 31 31 31 31 32 32 32 33 32 30 31 31 29 27 23 17 12 12 19 24 27 28
17 17 18 19 20 21 22 23 24 26 27 28 29 30 30 30 28 27 26 25 25 24 25 26 29 31 33 34 36 37 38 39 39 39 38 38 38 37 34 32 30 30 31 30 30 29 29 28 29 28 26 26 28 29 27 24 17 12 12 16 20 23 25
18 18 18 19 19 20 21 22 23 25 26 27 28 29 31 31 30 29 28 27 27 26 26 27 29 30 32 33 35 36 37 38 38 37 37 36 36 36 35 33 30 29 29 30 29 28 27 25 25 23 21 20 22 24 24 22 16 10 9 11 14 17 20
18 18 18 18 19 20 21 21 22 24 25 26 27 29 30 31 32 31 30 29 28 28 27 27 28 29 31 32 33 34 34 35 35 35 35 35 34 34 34 33 32 29 28 28 28 27 26 24 23 21 19 16 16 17 18 16 14 12 8 6 6 8 11
18 17 17 17 18 19 20 20 21 22 24 25 26 28 30 32 32 33 32 32 31 29 29 28 28 29 30 31 32 32 32 33 34 34 34 33 33 33 32 33 33 31 29 28 27 27 26 24 24 23 21 18 14 13 12 11 11 11 9 7 6 5 5
16 16 16 16 16 17 19 19 20 21 23 24 26 28 30 32 33 34 35 34 34 32 31 30 29 29 29 30 31 31 32 32 32 33 32 31 31 31 32 32 32 32 31 30 29 28 26 25 25 26 27 25 20 15 14 14 14 14 12 11 11 11 11
Wind_Direction
304 306 307 308 311 314 317 320 322 323 325 325 324 326 328 326 323 320 314 310 308 306 304 302 302 301 298 296 294 294 296 295 294 297 300 300 298 294 293 291 289 286 283 280 279 280 280 280 281 279 277 278 277 275 273 269 265 261 258 256 254 252 249
305 303 302 301 302 301 301 303 307 311 314 316 317 319 322 322 321 319 316 316 316 313 310 305 302 299 298 298 296 294 292 286 280 283 290 294 293 292 291 292 292 290 288 283 279 277 274 271 274 277 277 276 274 274 272 270 266 263 261 260 259 254 249
295 291 289 291 295 297 299 300 302 305 306 307 310 310 307 307 310 311 312 316 319 318 316 313 307 302 301 299 297 295 294 291 286 283 286 291 292 291 289 288 289 290 290 287 280 276 272 268 268 273 276 273 271 273 275 273 268 264 262 262 262 259 253
285 283 280 281 285 289 293 297 297 298 299 301 302 302 300 299 298 300 304 307 308 308 310 312 311 308 305 303 303 304 302 299 296 292 289 289 291 291 289 287 286 286 287 286 282 280 278 273 271 273 277 275 273 272 272 273 270 264 261 260 261 261 257
280 283 285 287 290 293 296 298 298 297 297 296 298 301 305 305 301 300 302 301 301 301 303 309 314 314 309 308 310 310 307 304 301 299 295 294 292 289 288 286 285 284 283 281 281 282 280 278 276 275 277 276 273 270 266 267 268 265 262 260 260 259 255
286 289 292 294 296 298 297 298 299 300 300 300 303 307 311 312 308 307 306 305 306 304 302 303 306 308 308 310 310 306 304 302 300 298 297 296 295 294 292 289 286 283 282 281 283 284 282 279 277 275 275 274 271 269 267 265 266 266 264 260 259 255 252
293 294 294 295 295 296 297 298 300 303 305 306 308 308 309 310 308 308 307 307 306 306 308 309 304 302 306 310 309 304 302 302 299 298 297 297 299 300 299 294 289 285 283 285 287 288 285 282 279 276 273 271 270 270 268 266 265 265 263 260 259 255 251
292 293 294 294 296 297 300 303 306 309 311 311 311 309 307 304 301 300 301 303 306 308 312 315 312 309 310 310 309 307 306 307 306 303 300 301 305 306 305 300 297 292 288 286 287 290 290 287 283 281 277 272 268 268 270 269 266 264 262 262 260 255 250
292 293 295 296 299 302 306 310 312 314 315 315 315 313 310 307 304 302 302 304 306 307 307 307 308 311 312 311 310 309 309 311 311 309 306 305 307 308 307 304 299 296 292 287 283 285 289 289 285 284 283 276 268 267 269 269 267 265 261 260 260 256 252
300 300 301 303 305 308 311 312 313 314 315 315 314 313 311 310 309 307 307 308 308 308 307 306 305 305 302 299 301 303 305 307 308 307 305 303 301 302 302 303 301 298 294 289 283 279 282 284 282 280 280 276 271 268 266 264 266 269 267 264 264 261 257
316 313 313 313 313 314 313 314 316 319 322 324 324 324 322 318 315 311 308 309 311 312 312 312 310 307 303 298 296 296 296 296 296 297 298 298 298 298 298 299 300 299 297 293 288 284 283 283 279 276 275 275 274 271 266 264 266 269 269 267 266 264 262
326 322 321 321 321 320 321 325 331 334 339 341 341 341 339 334 330 324 319 318 320 321 321 321 321 319 317 314 309 304 298 293 289 287 287 287 290 292 293 294 295 296 295 293 288 285 284 285 283 279 277 279 280 276 272 269 267 269 269 267 266 265 264
327 324 324 326 326 328 336 346 350 349 349 348 346 347 346 343 341 338 336 334 334 333 332 331 331 331 330 328 325 322 316 310 303 295 290 286 284 285 287 288 289 289 290 290 288 285 282 282 281 278 276 278 280 279 278 273 268 271 274 271 268 267 265
334 335 335 337 337 339 346 351 352 350 348 346 346 348 347 346 346 343 342 341 339 338 337 336 335 334 333 331 330 329 327 324 321 316 311 305 298 293 289 287 285 284 283 282 283 284 285 284 282 279 276 275 275 276 278 276 269 271 275 274 271 268 265
348 352 356 358 356 352 348 348 350 347 345 347 348 348 348 348 348 347 346 344 341 340 338 337 335 334 333 332 331 331 329 327 325 323 321 319 316 311 304 298 293 289 285 281 279 278 281 283 282 281 281 279 277 273 274 278 276 272 273 275 274 271 267
0 5 11 12 8 4 359 357 355 350 349 351 350 349 350 349 349 347 346 344 341 339 338 337 336 334 333 331 330 330 330 329 327 326 324 323 321 318 315 311 306 300 293 288 283 278 276 276 277 279 282 282 280 277 274 276 279 277 275 275 274 273 270
9 11 15 16 15 15 13 10 6 2 360 356 353 352 351 349 347 345 343 342 340 338 337 336 336 334 332 330 329 328 327 327 327 326 326 325 323 321 320 317 313 310 303 295 288 282 277 273 271 272 275 278 281 281 278 275 275 276 277 275 273 273 271
22 25 25 24 23 22 19 17 13 11 8 3 359 357 354 352 349 347 345 344 342 339 338 336 334 333 332 330 328 327 326 325 324 324 323 323 323 323 322 319 317 317 314 307 298 290 282 275 271 267 267 270 276 280 281 278 275 274 275 275 273 272 272
37 40 39 35 32 27 23 20 16 15 14 10 7 4 2 360 357 355 352 349 346 344 341 339 337 335 334 332 331 331 329 327 325 324 322 321 320 320 320 320 320 321 320 318 312 302 294 285 278 271 266 265 267 273 278 279 277 274 273 272 270 271 271
46 49 46 41 36 30 24 20 18 17 14 11 9 7 7 6 3 1 357 354 351 349 346 343 341 339 339 339 338 337 335 333 331 328 326 322 318 317 318 320 321 322 322 323 320 313 306 298 290 282 274 268 265 265 269 274 276 275 272 270 268 267 266
49 50 47 42 39 33 28 24 21 20 17 15 14 13 12 11 8 5 2 359 357 354 352 349 348 347 346 344 343 340 339 336 334 333 330 327 323 320 319 320 321 321 322 323 321 316 309 303 298 291 284 278 271 264 262 265 269 271 271 269 265 263 263
51 51 49 47 47 42 38 35 31 29 26 24 22 20 17 14 11 8 7 4 2 0 359 359 359 356 351 348 345 342 340 338 336 336 333 330 327 324 322 322 322 322 322 320 317 314 308 302 299 296 291 286 280 272 263 260 261 265 268 268 265 264 262
62 61 58 56 54 50 47 43 38 35 32 28 25 21 16 13 10 7 5 3 2 1 1 2 2 358 353 350 347 344 342 340 338 337 335 332 329 327 326 324 322 322 322 320 317 314 311 305 299 299 298 293 286 279 271 262 257 258 262 266 265 263 262
74 70 66 63 59 54 50 44 39 35 31 26 22 17 12 9 6 3 1 359 358 358 359 359 357 355 354 352 349 347 344 341 339 338 337 335 332 330 330 328 325 323 323 324 324 319 314 307 301 301 305 303 294 283 275 268 259 254 255 260 263 262 260
79 75 71 65 61 56 50 45 40 35 29 25 19 13 9 7 3 359 357 356 356 356 357 356 355 354 354 353 352 350 347 343 340 339 338 338 337 335 333 332 330 328 327 328 329 325 319 311 305 303 306 306 301 289 278 270 263 256 251 252 257 260 259
81 77 72 67 62 56 50 45 40 35 30 25 18 14 11 7 3 0 358 357 358 358 358 357 357 356 355 355 355 353 351 349 346 343 341 340 339 339 338 336 335 334 332 331 330 329 325 318 310 306 305 306 304 296 282 271 264 258 251 248 250 254 256
82 78 74 68 62 55 49 44 38 34 29 24 21 18 16 12 9 7 6 5 4 3 2 1 360 359 358 357 356 355 355 354 352 350 347 343 342 343 343 342 340 339 337 334 332 331 329 325 318 311 308 311 311 303 289 274 265 257 250 245 245 248 251
82 79 74 67 59 53 47 42 38 35 32 30 28 26 23 19 16 14 12 10 9 8 7 5 4 3 2 0 359 358 358 358 356 355 352 349 347 347 348 347 345 343 341 338 335 335 334 330 324 318 316 319 320 312 297 283 272 260 249 243 241 243 247
81 77 70 63 58 52 47 43 40 39 37 35 32 29 27 24 21 19 17 14 13 13 11 10 11 10 7 5 4 2 2 1 0 359 357 354 353 354 355 353 350 347 344 341 339 339 338 335 329 325 324 324 323 317 306 295 281 264 250 242 239 240 244
78 74 69 64 59 53 48 44 42 41 38 35 33 31 29 28 26 24 22 19 17 16 15 15 16 14 12 11 9 8 7 6 5 4 2 0 358 359 359 355 352 350 347 345 344 342 340 338 334 330 326 325 327 324 317 309 292 267 250 241 239 241 244
77 74 71 67 61 55 50 46 44 43 40 37 36 34 33 32 32 30 27 24 22 20 18 19 18 16 15 14 13 12 10 9 8 6 5 4 2 2 359 355 353 352 350 347 345 342 340 338 335 331 326 325 331 334 327 321 313 286 255 242 240 244 247
79 77 74 69 63 57 52 49 47 44 42 39 38 37 36 35 35 34 32 28 26 24 22 22 20 18 17 17 16 14 12 11 10 9 6 4 3 2 360 356 355 356 354 349 344 342 341 338 334 330 326 327 333 338 337 329 322 311 275 250 244 247 251
82 80 75 69 64 59 54 51 47 45 43 40 39 38 38 37 36 35 33 31 29 26 25 24 23 20 19 19 17 15 13 13 12 10 8 5 3 1 0 357 356 359 359 355 349 345 342 341 337 331 328 332 335 337 339 334 321 303 280 261 251 250 253
82 79 74 70 65 60 55 50 47 45 43 40 38 38 39 39 38 36 34 32 30 28 25 25 24 22 21 20 18 16 15 14 12 10 9 8 6 4 3 1 359 359 1 2 358 352 349 347 344 338 337 341 337 332 336 338 332 319 292 269 259 257 258
78 74 72 70 67 61 56 51 47 44 42 39 38 38 38 39 39 37 36 33 31 29 26 25 24 23 22 21 20 17 16 15 13 11 9 9 9 9 8 6 4 1 0 1 1 0 359 358 355 353 355 356 345 335 337 344 348 350 343 316 290 278 274
75 71 69 69 68 63 58 52 47 44 41 39 37 37 38 38 38 37 36 34 32 29 26 24 22 22 22 21 20 19 17 16 15 13 11 10 11 13 13 12 11 9 7 5 5 5 6 7 9 11 15 19 12 357 354 360 7 15 18 20 24 24 16
74 69 67 67 66 64 60 54 49 44 41 38 37 36 37 36 35 35 34 33 32 30 27 24 22 21 21 21 20 18 17 18 16 14 14 13 13 15 17 16 16 16 15 14 14 13 11 12 17 22 28 34 34 28 29 34 38 43 45 49 57 62 61